Change the Weather History Date:

Saturday, August 31, 2013

  Actual Average (KLAF) Record (KLAF)
Temperature  
Mean Temperature 79 °F 72 °F  
Max Temperature 98 °F 83 °F 91 °F (1969)
Min Temperature 61 °F 60 °F 46 °F (1986)
Degree Days  
Heating Degree Days 0 0  
Month to date heating degree days 0  
Since 1 June heating degree days 28  
Since 1 July heating degree days 6  
Cooling Degree Days 14 7  
Month to date cooling degree days 261  
Year to date cooling degree days 852  
Since 1 June cooling degree days 775  
Growing Degree Days 29 (Base 50)    
Moisture  
Dew Point 66 °F    
Average Humidity 78    
Maximum Humidity 94    
Minimum Humidity 50    
Precipitation  
Precipitation 0.00 in 0.10 in 2.30 in (2003)
Month to date precipitation 3.46  
Year to date precipitation 25.55  
Sea Level Pressure  
Sea Level Pressure 29.78 in    
Wind  
Wind Speed 4 mph (SE)    
Max Wind Speed 13 mph    
Max Gust Speed 18 mph    
Visibility 8 miles    
Events Rain    
T = Trace of Precipitation, MM = Missing Value Source: NWS Daily Summary

Daily Weather History Graph

Daily Weather History Graph

Search for Another Location

Airport or City:

Trip Planner

Search our weather history database for the weather conditions in past years. The results will help you decide how hot, cold, wet, or windy it might be!

Date:

Astronomy

Aug. 31, 2013 Rise Set
Actual Time 6:17 AM CDT 7:23 PM CDT
Civil Twilight 5:49 AM CDT 7:51 PM CDT
Nautical Twilight 5:15 AM CDT 8:24 PM CDT
Astronomical Twilight 4:41 AM CDT 8:58 PM CDT
Moon 1:45 AM CDT (8/31) 4:21 PM CDT (8/31)
Length of Visible Light 14h 01m
Length of Day
13h 06m
Waning Crescent, 21% of the Moon is Illuminated
Aug 31
Waning Crescent
Sep 5
New
Sep 12
First Quarter
Sep 19
Full
Sep 26
Last Quarter

Hourly Weather History & Observations

Time (CDT) Temp. Heat Index Dew Point Humidity Pressure Visibility Wind Dir Wind Speed Gust Speed Precip Events Conditions
12:15 AM 67.5 °F - 63.5 °F 87% 29.84 in 10.0 mi SW 4.6 mph - N/A Rain Light Rain
12:55 AM 66.2 °F - 62.6 °F 88% 29.78 in 10.0 mi South 4.6 mph - N/A   Clear
1:15 AM 66.2 °F - 62.6 °F 88% 29.76 in 10.0 mi SSW 4.6 mph - N/A   Clear
1:35 AM 66.4 °F - 63.3 °F 90% 29.78 in 10.0 mi Calm Calm - N/A   Clear
1:55 AM 66.4 °F - 63.1 °F 89% 29.80 in 10.0 mi NNE 3.5 mph - N/A   Clear
2:15 AM 66.2 °F - 62.6 °F 88% 29.82 in 10.0 mi East 5.8 mph - N/A   Clear
2:35 AM 65.5 °F - 61.9 °F 88% 29.82 in 10.0 mi East 3.5 mph - N/A   Clear
2:55 AM 64.8 °F - 61.3 °F 89% 29.82 in 10.0 mi Calm Calm - N/A   Clear
3:15 AM 63.9 °F - 61.0 °F 90% 29.83 in 10.0 mi North 4.6 mph - N/A   Clear
3:35 AM 63.5 °F - 60.8 °F 91% 29.84 in 10.0 mi Calm Calm - N/A   Clear
3:55 AM 62.1 °F - 59.4 °F 91% 29.83 in 7.0 mi East 3.5 mph - N/A   Clear
4:15 AM 61.9 °F - 59.2 °F 91% 29.82 in 7.0 mi ENE 3.5 mph - N/A   Clear
4:35 AM 62.2 °F - 59.5 °F 91% 29.83 in 7.0 mi Calm Calm - N/A   Clear
4:55 AM 62.2 °F - 59.5 °F 91% 29.83 in 7.0 mi East 4.6 mph - N/A   Clear
5:15 AM 62.6 °F - 59.9 °F 91% 29.82 in 7.0 mi East 4.6 mph - N/A   Clear
5:35 AM 63.0 °F - 60.8 °F 93% 29.82 in 7.0 mi Calm Calm - N/A   Clear
5:55 AM 62.8 °F - 60.3 °F 91% 29.82 in 7.0 mi ENE 3.5 mph - N/A   Clear
6:15 AM 62.6 °F - 60.1 °F 91% 29.83 in 5.0 mi Calm Calm - N/A   Clear
6:35 AM 62.1 °F - 59.9 °F 93% 29.83 in 5.0 mi Calm Calm - N/A   Clear
6:55 AM 63.1 °F - 61.0 °F 93% 29.83 in 7.0 mi Calm Calm - N/A   Clear
7:15 AM 65.5 °F - 63.7 °F 94% 29.82 in 5.0 mi Calm Calm - N/A   Clear
7:35 AM 67.1 °F - 64.8 °F 92% 29.82 in 7.0 mi Calm Calm - N/A   Clear
7:55 AM 68.7 °F - 66.0 °F 91% 29.82 in 7.0 mi Calm Calm - N/A   Clear
8:15 AM 70.7 °F - 67.5 °F 89% 29.82 in 7.0 mi SSE 3.5 mph - N/A   Clear
8:35 AM 73.4 °F - 69.4 °F 87% 29.82 in 10.0 mi South 5.8 mph - N/A   Clear
8:55 AM 73.4 °F - 68.2 °F 84% 29.82 in 7.0 mi South 4.6 mph - N/A   Clear
9:15 AM 76.3 °F - 70.7 °F 83% 29.82 in 7.0 mi SSE 3.5 mph - N/A   Clear
9:35 AM 78.8 °F - 72.3 °F 80% 29.82 in 7.0 mi SE 3.5 mph - N/A   Clear
9:55 AM 81.5 °F 87.2 °F 73.9 °F 78% 29.82 in 7.0 mi Calm Calm - N/A   Clear
10:15 AM 84.4 °F 90.6 °F 72.9 °F 68% 29.82 in 7.0 mi South 3.5 mph - N/A   Clear
10:35 AM 83.3 °F 87.1 °F 69.4 °F 63% 29.82 in 5.0 mi South 3.5 mph - N/A   Haze
10:55 AM 84.9 °F 89.7 °F 70.7 °F 62% 29.82 in 5.0 mi WSW 3.5 mph - N/A   Haze
11:15 AM 87.4 °F 92.3 °F 69.8 °F 56% 29.81 in 7.0 mi South 3.5 mph - N/A   Clear
11:35 AM 87.4 °F 93.1 °F 71.1 °F 58% 29.80 in 7.0 mi Calm Calm - N/A   Clear
11:55 AM 90.0 °F 99.6 °F 74.5 °F 60% 29.79 in 7.0 mi SSW 5.8 mph - N/A   Clear
12:15 PM 90.0 °F 97.4 °F 72.5 °F 56% 29.78 in 7.0 mi SSE 6.9 mph - N/A   Clear
12:35 PM 91.0 °F 99.3 °F 73.0 °F 55% 29.77 in 7.0 mi South 5.8 mph - N/A   Clear
12:55 PM 89.2 °F 99.5 °F 75.0 °F 63% 29.78 in 7.0 mi SW 3.5 mph - N/A   Clear
1:15 PM 93.6 °F 101.9 °F 72.1 °F 50% 29.78 in 7.0 mi Calm Calm - N/A   Clear
1:35 PM 95.0 °F 106.7 °F 74.8 °F 52% 29.77 in 5.0 mi Calm Calm - N/A   Haze
1:55 PM 97.3 °F 120.4 °F 81.5 °F 60% 29.77 in 7.0 mi Calm Calm - N/A   Clear
2:15 PM 97.0 °F 124.5 °F 83.7 °F 65% 29.77 in 5.0 mi NE 4.6 mph - N/A   Haze
2:35 PM 95.2 °F 111.1 °F 77.9 °F 57% 29.76 in 7.0 mi ENE 6.9 mph - N/A   Scattered Clouds
2:55 PM 93.2 °F 105.7 °F 76.1 °F 57% 29.75 in 7.0 mi East 9.2 mph - N/A   Clear
3:15 PM 92.7 °F 103.0 °F 74.5 °F 55% 29.75 in 7.0 mi ENE 9.2 mph - N/A   Clear
3:35 PM 89.2 °F 94.9 °F 70.7 °F 54% 29.72 in 7.0 mi ENE 5.8 mph - N/A   Scattered Clouds
3:55 PM 87.1 °F 93.6 °F 72.1 °F 61% 29.71 in 7.0 mi East 8.1 mph - N/A   Scattered Clouds
4:15 PM 85.8 °F 91.5 °F 71.4 °F 62% 29.71 in 7.0 mi ENE 12.7 mph 18.4 mph N/A   Scattered Clouds
4:35 PM 82.6 °F 85.5 °F 68.0 °F 61% 29.72 in 7.0 mi ENE 8.1 mph - N/A Rain Light Rain
4:55 PM 77.2 °F - 65.1 °F 66% 29.70 in 7.0 mi East 10.4 mph - N/A Rain Light Rain
5:15 PM 75.6 °F - 63.9 °F 67% 29.71 in 7.0 mi East 4.6 mph - N/A   Scattered Clouds
5:35 PM 76.6 °F - 69.3 °F 78% 29.74 in 10.0 mi NW 9.2 mph - N/A Rain Light Rain
5:55 PM 74.5 °F - 68.5 °F 82% 29.76 in 7.0 mi ENE 3.5 mph - N/A Rain Rain
6:15 PM 73.6 °F - 67.1 °F 80% 29.75 in 10.0 mi ESE 9.2 mph - N/A Rain Light Rain
6:35 PM 73.8 °F - 68.0 °F 82% 29.76 in 10.0 mi SSW 3.5 mph - N/A Rain Rain
6:55 PM 71.8 °F - 65.1 °F 79% 29.74 in 7.0 mi East 9.2 mph - N/A Rain Rain
7:15 PM 70.9 °F - 64.2 °F 79% 29.75 in 7.0 mi SSE 6.9 mph - N/A Rain Rain
7:35 PM 71.2 °F - 63.5 °F 76% 29.75 in 7.0 mi SE 5.8 mph - N/A Rain Rain
7:55 PM 70.7 °F - 63.1 °F 77% 29.75 in 10.0 mi Calm Calm - N/A Rain Rain
8:15 PM 70.7 °F - 63.5 °F 78% 29.74 in 10.0 mi Calm Calm - N/A Rain Rain
8:35 PM 70.2 °F - 63.1 °F 78% 29.74 in 10.0 mi Calm Calm - N/A Rain Rain
8:55 PM 69.8 °F - 62.6 °F 78% 29.75 in 7.0 mi Calm Calm - N/A Rain Rain
9:15 PM 69.3 °F - 62.6 °F 79% 29.75 in 10.0 mi North 3.5 mph - N/A Rain Rain
9:35 PM 68.0 °F - 61.9 °F 81% 29.75 in 10.0 mi ESE 4.6 mph - N/A Rain Rain
9:55 PM 67.1 °F - 60.8 °F 80% 29.75 in 7.0 mi East 4.6 mph - N/A Rain Rain
10:15 PM 67.3 °F - 62.1 °F 83% 29.76 in 7.0 mi Calm Calm - N/A Rain Rain
10:35 PM 66.6 °F - 62.1 °F 85% 29.78 in 7.0 mi SSE 3.5 mph - N/A Rain Rain
10:55 PM 67.1 °F - 63.1 °F 87% 29.78 in 7.0 mi Calm Calm - N/A Rain Heavy Rain
11:15 PM 67.1 °F - 63.5 °F 88% 29.78 in 7.0 mi South 4.6 mph - N/A Rain Heavy Rain
11:35 PM 67.3 °F - 63.9 °F 89% 29.77 in 7.0 mi SSE 3.5 mph - N/A Rain Rain
11:55 PM 67.1 °F - 63.9 °F 89% 29.78 in 7.0 mi SSE 3.5 mph - N/A Rain Rain